Location: Kelshall
(52.0000°N, 0.0500°W)
Time: 22:51:17
(UTC+00:00)

Meteor 1-15 Rocket - Pass Details

Date: 18 September 2020
Orbit: 840 x 907 km, 81.2° (Epoch: 30 October)

Event Time Altitude Azimuth Distance (km) Brightness Sun altitude
Rises 19:51:50 0° 177° (S) 3,397 7.1 -16.4°
Reaches altitude 10° 19:54:15 10° 173° (S) 2,473 6.3 -16.8°
Maximum altitude 19:59:44 57° 96° (E) 1,008 4.3 -17.5°
Drops below altitude 10° 20:05:20 10° 19° (NNE) 2,531 6.8 -18.3°
Sets 20:07:50 0° 16° (NNE) 3,484 7.6 -18.6°
